Youngstown, OH

3:07 PM EDT on April 26, 2017 (GMT -0400)
Youngstown-Warren Regional

Weather History for KYNG - May, 2012

Change the Weather History Date:

Sunday, May 20, 2012

  Actual Average Record
Temperature  
Mean Temperature 69 °F 59 °F  
Max Temperature 86 °F 70 °F 91 °F (1934)
Min Temperature 52 °F 48 °F 29 °F (2002)
Degree Days  
Heating Degree Days 0 7  
Month to date heating degree days 94 187  
Since 1 July heating degree days 5039 6214  
Cooling Degree Days 4 1  
Month to date cooling degree days 27 13  
Year to date cooling degree days 39 22  
Growing Degree Days 19 (Base 50)    
Moisture  
Dew Point 52 °F    
Average Humidity 58    
Maximum Humidity 89    
Minimum Humidity 27    
Precipitation  
Precipitation 0.00 in 0.13 in 1.12 in (1986)
Month to date precipitation 2.99 2.36  
Year to date precipitation 14.68 13.36  
Snow  
Snow 0.00 in 0.00 in - ()
Month to date snowfall 0.0 0.0  
Since 1 July snowfall 56.5 62.7  
Snow Depth 0.00 in    
Sea Level Pressure  
Sea Level Pressure 30.14 in    
Wind  
Wind Speed 5 mph (ESE)    
Max Wind Speed 10 mph    
Max Gust Speed 15 mph    
Visibility 10 miles    
Events      
T = Trace of Precipitation, MM = Missing Value Source: NWS Daily Summary

Daily Weather History Graph

Daily Weather History Graph

Search for Another Location

Airport or City:

Trip Planner

Search our weather history database for the weather conditions in past years. The results will help you decide how hot, cold, wet, or windy it might be!

Date:

Astronomy

May. 20, 2012 Rise Set
Actual Time 5:59 AM EDT 8:39 PM EDT
Civil Twilight 5:27 AM EDT 9:11 PM EDT
Nautical Twilight 4:47 AM EDT 9:52 PM EDT
Astronomical Twilight 4:01 AM EDT 10:37 PM EDT
Moon 5:38 AM EDT (5/20) 8:37 PM EDT (5/20)
Length of Visible Light 15h 44m
Length of Day
14h 40m
Waning Crescent, 0% of the Moon is Illuminated
May 20
Waning Crescent
May 20
New
May 28
First Quarter
Jun 4
Full
Jun 11
Last Quarter

Hourly Weather History & Observations

Time (EDT) Temp. Heat Index Dew Point Humidity Pressure Visibility Wind Dir Wind Speed Gust Speed Precip Events Conditions
12:51 AM 57.0 °F - 52.0 °F 83% 30.15 in 10.0 mi ENE 5.8 mph - N/A   Clear
1:51 AM 59.0 °F - 51.1 °F 75% 30.15 in 10.0 mi Calm Calm - N/A   Clear
2:51 AM 59.0 °F - 51.1 °F 75% 30.15 in 10.0 mi Calm Calm - N/A   Clear
3:51 AM 55.0 °F - 50.0 °F 83% 30.14 in 10.0 mi NE 3.5 mph - N/A   Clear
4:51 AM 52.0 °F - 48.9 °F 89% 30.14 in 10.0 mi NE 5.8 mph - N/A   Partly Cloudy
5:51 AM 54.0 °F - 48.9 °F 83% 30.15 in 10.0 mi Calm Calm - N/A   Scattered Clouds
6:51 AM 54.0 °F - 50.0 °F 86% 30.18 in 10.0 mi Calm Calm - N/A   Mostly Cloudy
6:59 AM 55.4 °F - 51.8 °F 88% 30.20 in 9.0 mi Calm Calm - N/A   Mostly Cloudy
7:12 AM 57.2 °F - 51.8 °F 82% 30.20 in 10.0 mi Calm Calm - N/A   Mostly Cloudy
7:51 AM 62.1 °F - 53.1 °F 72% 30.20 in 10.0 mi East 3.5 mph - N/A   Mostly Cloudy
8:51 AM 66.9 °F - 53.1 °F 61% 30.20 in 10.0 mi ESE 4.6 mph - N/A   Mostly Cloudy
9:51 AM 73.0 °F - 55.0 °F 53% 30.20 in 10.0 mi Variable 4.6 mph - N/A   Mostly Cloudy
10:51 AM 77.0 °F - 55.9 °F 48% 30.19 in 10.0 mi ENE 4.6 mph - N/A   Mostly Cloudy
11:51 AM 80.1 °F - 50.0 °F 35% 30.19 in 10.0 mi Calm Calm - N/A   Scattered Clouds
12:51 PM 82.9 °F 81.9 °F 54.0 °F 37% 30.17 in 10.0 mi East 5.8 mph - N/A   Scattered Clouds
1:51 PM 84.0 °F - 50.0 °F 31% 30.15 in 10.0 mi East 6.9 mph - N/A   Scattered Clouds
2:51 PM 86.0 °F - 50.0 °F 29% 30.13 in 10.0 mi Variable 6.9 mph - N/A   Scattered Clouds
3:51 PM 84.9 °F - 48.9 °F 29% 30.12 in 10.0 mi SE 6.9 mph - N/A   Scattered Clouds
4:51 PM 86.0 °F - 48.0 °F 27% 30.11 in 10.0 mi SE 8.1 mph - N/A   Scattered Clouds
5:51 PM 84.9 °F - 50.0 °F 30% 30.10 in 10.0 mi SE 8.1 mph - N/A   Scattered Clouds
6:51 PM 82.9 °F - 52.0 °F 34% 30.09 in 10.0 mi SE 4.6 mph - N/A   Mostly Cloudy
7:51 PM 78.1 °F - 55.9 °F 46% 30.08 in 10.0 mi SE 3.5 mph - N/A   Mostly Cloudy
8:51 PM 72.0 °F - 55.0 °F 55% 30.08 in 10.0 mi ESE 5.8 mph - N/A   Scattered Clouds
9:51 PM 70.0 °F - 51.1 °F 51% 30.09 in 10.0 mi ESE 5.8 mph - N/A   Mostly Cloudy
10:51 PM 68.0 °F - 52.0 °F 56% 30.08 in 10.0 mi SE 5.8 mph - N/A   Mostly Cloudy
11:51 PM 64.9 °F - 51.1 °F 61% 30.07 in 10.0 mi SE 6.9 mph - N/A   Mostly Cloudy